ATLAS CENTAUR 2 DEB, 19638

Orbit data source: Space-Track

ATLAS CENTAUR 2 DEB, 19638 is space debris in LEO originally from a launch on Wed, 27 Nov 1963 UTC launched from the Air Force Eastern Test Range (AFETR). Debris objects in space refer to the collection of defunct objects orbiting the Earth. Examples of debris include non-operational satellites, rocket bodies, and fragments generated from explosions, collisions, or faulty payload assembly.

Loading next visibility...
Identifier
19638, 1963-047S
Orbit
LEO
Country
Flag of USUS
Related business
Manufacturer
Unknown
Mission
Spacecraft
Bus & Motor
Unknown
Mass
Unknown
Launch date (UTC)
1963-11-27 (63 years ago)
Launch vehicle
Unknown
Launch site
Air Force Eastern Test Range (AFETR)
Object type
Payload
Rocket body
Debris
Shape & HBR
Unknown shape, 0.1 m
Radar Cross Section
Medium (>0.1 m² and <1 m²)

Expand to show TLE details & history
Last TLE update: 20 hours ago

TLE from 20 hours ago
0 ATLAS CENTAUR 2 DEB
1 19638U 63047S   26237.24703480  .00004136  00000-0  10436-1 0  9994
2 19638  31.0156 300.8526 0670900   5.7576  33.3939 12.57107810583346
Epoch: 2026-08-25T05:55Z
TLE epoch observation values (Epoch: 2026-08-25T05:55:43.806Z)
Latitude
20.93854°
Longitude
-82.31912°
Altitude
1,007.34 km
Speed
7.549 km/s
True Right ascension
22h 40m 31s
True Declination
20° 49' 40"
Sunlit
Object was in full shadow at epoch
Visualization orbit readout
Latitude
Unknown
Longitude
Unknown
Altitude
Unknown
Speed
Unknown
Apparent Right ascension
Unknown
Apparent Declination
Unknown
Sunlit
N/A
Visualization observer readout
Local Sidereal Time
17:37:15
Azimuth
Unknown
Elevation
Unknown
Doppler factor
Unknown
Orbital elements
Apogee altitude
1,962.732 km
Perigee altitude
913.919 km
Semi-major axis
7,816.463 km
Eccentricity
0.06709
Inclination
31.0156°
RAAN
300.8526°
Arg. of periapsis
5.7576°
True anomaly
37.938°
Mean anomaly
33.3939°
Eccentric anomaly
35.63339°
Mean motion
3.14071 °/min
Orbital period
114.62 mins
BSTAR
0.010436
Loading maneuver chart data...
Computing Atmospheric mass density...

Documentation

Showing up to 5 results
|